AQI (34)

Current Conditions for Foresthill, CA. Sunny, Dry   
Visibility: 10 miles
Space WX Alerts: WATCH:  Geomagnetic Storm Category G1 Predicted ( Latest Alert ) - Issue Time: 2019 Oct 22 2112 UTC

  Summary / Temperature 

Current Temperature
83.7°F
28.7°C
(24/hr Ago)
77.1°F
(Apparent temp)
78.6°F
Warm
Heat Index
81.2°F 

83.7°F/ 28.7°C
Little or no discomfort

 Temp Rate:

 24/hr Difference:

 Avg Running Temp:

 Todays High:

 Todays Low:

 Y-days High:

 Y-days Low:

 Todays HeatIdx:

 Y-days HeatIdx:

 Evapotranspiration:

+4.7°F/hr 

+6.6°F

80.0°F

83.8°F 2:00pm

58.2°F 8:02am

78.0°F 1:33pm

57.6°F 5:21am

81.2°F 2:00pm

77.1°F 1:33pm

0.089 in

115' Above Ground

 Temperature:

 6'AGL VRS 115'AGL:

 Avg Running Temp:

 Humidity:

 Todays High:

 Todays Low:

 Y-days High:

 Y-days Low:

79.0°F 

-4.7°F

77.1°F

24% 

79.0°F 2:01pm

62.0°F 7:05am

76.0°F 1:16pm

60.0°F 5:45am

Temp & Humidity Graphs

  Wind 

Wind Speed

 6.0 mph

Gusting to

 20.0 mph

Wind from E

95°  E

Light breeze

 Avg speed:

 Wind Run:

 Peak Gust:

  5.0 mph 

24.0 miles

  21.0 mph 9:37am

  Almanac  

Moon age: 24 days,16 hours,4 minutes,25%

Waning Crescent
24%
Illuminated
24 days in cycle

 Moonrise:

 Moonset:

 Sunrise:

 Sunset:

 Solar Noon:

1:48am

4:04pm

7:21am

6:14pm

12:48pm

2min 29s less daylight tomorrow 

  Solar Radiation 

(Current Solar)
  559 W/m2 (96%)
(Todays High)
 608 W/m2@12:13pm
Feels like: 92.7°F in the sun

Rain

 Rain Today:

 Rain Rate (/hr):

 Rain last hour:

 Rain Yesterday:

 This Month:

 Season Total:

5 Days Since Last Rain Day

0.00 in

0.000 in

0.00 in

0.00 in

0.06 in

2.32 in

Updated Time

Updated: 10/23/19  2:02pm

(Updated  sec ago)

Humidity & Barometer

 Humidity:

 Wetbulb:

 Dew Point:

 Barometer:

21% 

63.3°F 

39.6°F 

29.978 inHg 

 Baro Trend:  Falling Slowly 
Northern Calif
Preparedness
Fire 
Level 

    UV Index  

(Current UV)
3.2  Medium
(Todays High) @ 12:24pm
3.8   Medium

National Weather Service Forecast

This
Afternoon
This Afternoon: Sunny
Sunny
Tonight

Tonight: Clear
Clear
Thursday

Thursday: Sunny
Sunny
Thursday
Night
Thursday Night: Clear
Clear
Friday

Friday: Sunny
Sunny
Friday
Night
Friday Night: Clear
Clear
Hi 77 °F ↓ Lo 55 °F ↑ Hi 79 °F ↓ Lo 55 °F Hi 77 °F Lo 55 °F

Foresthill Probe 2 Stats  
Foresthill Probe 2: is located on Thomas Street
at 3000 feet. The main Foresthill Weather site
is located on Melody ln at the 2860 foot elevation

Light Air
76.5°F
24.7°C
Temp Rate:
+1.5°F
Calm
Gusting to
7.0 mph
(Humidity)
28%
Wind from E
91°  E
Updated: 23/10/19 - 14:03:36
 Todays High: 76.6°F 13:42
 Todays Low: 56.5°F 06:50
 Rain Today: 0.00 in
 Season Total: 2.29 in

Foresthill Wx: Monthly,Yearly, Highs and Lows 

Foresthill  
This Weather Data is coming from the main Foresthill
Weather site located on Melody ln at the 2860 foot
elevation
Not Foresthill Probe 2
Weather Data
Month
  High
Month
  Low
Year
High
Year
Low
Temp 83.8°F
10/23/19
40.0°F
10/1/19
92.2°F
8/16/19
24.5°F
2/18/19
Humidity 93%
10/17/19
15%
10/7/19
100%
1/9/19
14%
4/22/19
Heat Index 81.2°F
10/23/19
43.8°F
10/1/19
90.8°F
7/27/19
30.1°F
2/22/19
Wind Chill 83.8°F
10/23/19
32.4°F
10/1/19
92.2°F
8/16/19
11.5°F
2/11/19
Wind Gust 29 mph
10/9/19
0 mph
10/1/19
48 mph
2/27/19
0 mph
1/1/19
Barometer 30.24 in
10/22/19
29.79 in
10/9/19
30.54 in
1/23/19
29.37 in
2/14/19
ET 0.14 in
10/8/19
0.00 in
10/1/19
0.27 in
6/9/19
0.00 in
1/1/19
Dew Point 51.3°F
10/17/19
14.3°F
10/10/19
66.8°F
6/17/19
7.7°F
1/1/19
Visible Satellite Pacific Satellite US Radar Satellite Imagery Sacramento,CA.  (click to enlarge)
NWS Weather Forecast - Summary
Updated: Wednesday, October 23, 2019 - 5:09am PDT
A Red Flag Warning is in Effect for Portions of Interior Northern California this Morning Through Thursday Afternoon
Current Interstate Highway Conditions for I-80 & US-50

[I 80: IN THE SAN FRANCISCO BAY AREA - SOLANO CO]
the eastbound connector to westbound sr 37 (SOLANO CO) is closed from 0001 hrs to 5:00am monday thru friday thru 10/25/19 - due to construction - motorists are advised to use an alternate route

[I 80: IN THE NORTHERN CALIFORNIA AREA & SIERRA NEVADA]
no traffic restrictions are reported for this area.

[US 50: IN THE SACRAMENTO VALLEY & THE LAKE TAHOE BASIN]
  1-way controlled traffic at various locations from 0. 3 mi east of echo summit to 1. 3 mi east of echo summit /at johnson pass rd/ (EL DORADO CO) from 6:00am to 6:00pm tuesday thru thursday & from 6:00am to 12:00pm on friday thru 10/25/19 - due to construction
  1-way controlled traffic at various locations from 0. 8 mi east of echo summit to 1. 3 mi west of the jct of sr 89 (EL DORADO CO) from 6:00pm each evening to 2:00pm each afternoon tuesday thru friday thru 10/25/19 - due to construction
  1-way controlled traffic at various locations from 1. 2 mi east of meyers /at arapahoe/ to 1. 6 mi east of meyers /at sawmill rd/ (EL DORADO CO) from 7:00am to 5:00pm wednesday thru thursday thru 10/24/19 - due to construction
NWS Weather Forecast: This Afternoon and Tonight (Updated: Wed, 23-Oct-2019 10:37am PDT)
This
Afternoon
This Afternoon: Sunny
Sunny

Hi 77 °F ↓
NWS forecast: Sunny. High near 77, with temperatures falling to around 73 in the afternoon. East northeast wind around 14 mph, with gusts as high as 21 mph.
Tonight

Tonight: Clear
Clear

Lo 55 °F ↑
NWS forecast: Clear. Low around 55, with temperatures rising to around 59 overnight. East northeast wind 12 to 21 mph, with gusts as high as 31 mph.
YR.NO 10 Day Weather forecast
Last update: 10/23/2019 @ 00:38
Next update: 10/23/2019 @ 13:00
Provided by: 22
      Temperature Precipitation Pressure Wind  
Today
10/23/2019
12:00 18:00 75°F   29.99 inHg Gentle breeze from east-northeast 10 mph
  18:00 00:00 68°F   29.92 inHg Gentle breeze from east-northeast 9 mph
    (Click to enlarge)
meteogram

    Forecast for next 9 days

      Temperature Precip Pressure Wind  
Thursday
10/24/2019
00:00 06:00 63°F   29.98 inHg Moderate breeze from east-northeast 14 mph
  06:00 12:00 59°F   30.01 inHg Moderate breeze from east-northeast 13 mph
  12:00 18:00 79°F   30.04 inHg Light breeze from east 7 mph
  18:00 00:00 70°F   30.04 inHg Light air from south 2 mph
      Temperature Precip Pressure Wind  
Friday
10/25/2019
00:00 06:00 55°F   30.10 inHg Gentle breeze from east-northeast 9 mph
  06:00 12:00 48°F   30.11 inHg Light breeze from east-northeast 7 mph
  12:00 18:00 77°F   30.10 inHg Light air from west-southwest 3 mph
  17:00 23:00 72°F   30.04 inHg Light air from west 2 mph
  23:00 05:00 50°F   30.02 inHg Light breeze from east-northeast 6 mph
      Temperature Precip Pressure Wind  
Saturday
10/26/2019
05:00 11:00 46°F   29.92 inHg Light breeze from east-northeast 6 mph
  11:00 17:00 73°F   29.91 inHg Light air from west-southwest 2 mph
  17:00 23:00 68°F   29.79 inHg Light air from west-southwest 2 mph
  23:00 05:00 48°F   29.78 inHg Light breeze from east-northeast 4 mph
      Temperature Precip Pressure Wind  
Sunday
10/27/2019
05:00 11:00 48°F   29.77 inHg Moderate breeze from east-northeast 16 mph
  11:00 17:00 52°F   29.77 inHg Fresh breeze from east-northeast 21 mph
  17:00 23:00 52°F   29.77 inHg Moderate breeze from east-northeast 13 mph
  23:00 05:00 45°F   29.86 inHg Light breeze from northeast 7 mph
      Temperature Precip Pressure Wind  
Monday
10/28/2019
05:00 11:00 43°F   29.89 inHg Gentle breeze from northeast 11 mph
  11:00 17:00 52°F   29.99 inHg Light air from north-northwest 2 mph
  17:00 23:00 55°F   29.90 inHg Light breeze from east 6 mph
  23:00 05:00 46°F   29.93 inHg Light breeze from east-northeast 7 mph
      Temperature Precip Pressure Wind  
Tuesday
10/29/2019
05:00 11:00 41°F   29.92 inHg Light breeze from east-northeast 7 mph
  11:00 17:00 59°F   29.96 inHg Light breeze from southwest 4 mph
  17:00 23:00 57°F   29.94 inHg Light air from west-southwest 3 mph
  23:00 05:00 41°F   29.99 inHg Light breeze from east-northeast 6 mph
      Temperature Precip Pressure Wind  
Wednesday
10/30/2019
05:00 11:00 39°F   30.00 inHg Light breeze from east-northeast 7 mph
  11:00 17:00 59°F   30.10 inHg Light breeze from south-southwest 4 mph
  17:00 23:00 59°F   30.10 inHg Light air from west 2 mph
  23:00 05:00 37°F   30.17 inHg Light breeze from east-northeast 5 mph
      Temperature Precip Pressure Wind  
Thursday
10/31/2019
05:00 11:00 37°F   30.17 inHg Light breeze from east-northeast 6 mph
  11:00 17:00 64°F   30.19 inHg Light air from south 2 mph
  17:00 23:00 61°F   30.12 inHg Light air from west-northwest 3 mph
  23:00 05:00 41°F   30.12 inHg Light breeze from east-northeast 6 mph
      Temperature Precip Pressure Wind  
Friday
11/01/2019
05:00 11:00 37°F   30.09 inHg Light breeze from east-northeast 6 mph
  11:00 17:00 64°F   30.09 inHg Light air from west 1 mph
How Close Are We To this Month's Temperature Record ?
Updated Wednesday, Oct 23, 2019- 2:00:00 PM

Current Temperature: 83.7°F

October's High: Temperature Record 90.8°F - Set on Mon, Oct 1, 2012 - 2:51:00 PM
We are currently 7.1°F Less than this Month's record High

October's Low: Temperature Record 38.8°F - Set on Tue, Oct 23, 2012 - 11:59:00 PM
We are currently 44.9°F More than this Month's record Low

Weather History For Wednesday, October 23, 2019


On this Day - In Weather History ...
Data courtesy of weatherforyou.com
powered by Cumulus v1.9.3 (1059)
Ambient Weather VWS v14.00
Top Website Map Copyright © 2007 - 2019 Foresthillweather.com Never base important decisions on this or any weather information obtained from the Internet